Location: ??????????
(54.4061°N, 22.6114°E)
Time: 06:09:11
(UTC+00:00)

ATLAS 5 CENTAUR R/B - Pass Details

Date: 23 October 2019
Orbit: 557 x 1102 km, 63.4° (Epoch: 11 November)

Event Time Altitude Azimuth Distance (km) Brightness Sun altitude
Rises 16:07:59 0° 251° (WSW) 2,855 7.0 -8.4°
Reaches altitude 10° 16:10:11 10° 257° (WSW) 2,007 5.9 -8.8°
Maximum altitude 16:14:35 49° 333° (NNW) 893 2.5 -9.4°
Drops below altitude 10° 16:19:39 10° 48° (NE) 2,312 4.0 -10.1°
Enters shadow 16:20:15 - 50° (NE) 2,541 4.2 -10.2°
